Regional Weather Roundup
Issued by NWS Jackson, KY

Home | Current Version | Previous Version | Text Only | Print | Product List | Glossary Off
Versions: 1 2 3 4 5 6 7 8 9 10 11 12 13 14 15 16 17 18 19 20 21 22 23 24 25 26 27 28 29 30 31 32 33 34 35 36 37 38 39 40 41 42 43 44 45 46 47 48 49 50

000
ASUS43 KJKL 222310
RWRJKL

EAST KENTUCKY HOURLY WEATHER ROUNDUP
NATIONAL WEATHER SERVICE JACKSON KY
600 PM EST SAT NOV 22 2014

NOTE: "FAIR" INDICATES FEW OR NO CLOUDS BELOW 12,000 FEET WITH
NO SIGNIFICANT WEATHER AND/OR OBSTRUCTIONS TO VISIBILITY.

* THESE REPORTS ARE NOT UNDER NWS QUALITY CONTROL AND MAY NOT
  REPORT WEATHER SUCH AS PRECIPITATION AND FOG.

KYZ079-080-083-085-087-088-110-112-115-119-120-230000
...EASTERN KENTUCKY...

CITY           SKY/WX    TMP DP  RH WIND       PRES   REMARKS
JACKSON        CLOUDY    53  23  31 CALM      30.18F
LONDON         CLEAR     54  28  36 S5        30.18F
SOMERSET*      CLOUDY    54  30  40 S5        30.18F
MONTICELLO*    CLEAR     52  31  44 S10       30.19F
MIDDLESBORO*   CLEAR     44  32  61 CALM      30.22F
HARLAN APT*    MOCLDY    52  23  32 E9        30.21F
BIG SANDY*     CLOUDY    57  23  26 S8        30.19S
MOREHEAD APT*  PTCLDY    54  28  37 S5        30.17F
$$

KYZ035-036-041-042-044-050-067-078-099-230000
...CENTRAL KENTUCKY...

CITY           SKY/WX    TMP DP  RH WIND       PRES   REMARKS
MT STERLING*   PTCLDY    52  32  46 SW8       30.16F
FLEMING/MASON* CLEAR     51  32  47 S6        30.15F
DANVILLE*      CLEAR     50  32  50 S7        30.15F
RICHMOND*      MOCLDY    55  27  33 S5        30.15F
LEXINGTON      CLEAR     52  31  44 S10       30.13F
FRANKFORT      CLEAR     53  31  42 S7        30.11F
$$

KYZ091>093-OHZ055-061-077-WVZ005-015-034-035-042-230000
...SOUTHERN OHIO/WEST VIRGINIA...

CITY           SKY/WX    TMP DP  RH WIND       PRES   REMARKS
COVINGTON      MOCLDY    58  34  40 S13       30.09F
COLUMBUS       MOCLDY    48  35  60 S6        30.10F
DAYTON         CLOUDY    55  39  54 S13       30.07F
WILMINGTON     CLOUDY    49  37  63 S6        30.09F
HUNTINGTON     PTCLDY    56  26  31 S3        30.16F
CHARLESTON     PTCLDY    54  23  30 S8        30.18F
PINEVILLE*     CLEAR     39  32  76 MISG      30.26S
BECKLEY        CLEAR     47  18  31 SE9       30.21F
BLUEFIELD      PTCLDY    50  15  24 S7        30.23F
$$

VAZ002-007-008-TNZ017-027-036-066-071-230000
...SOUTHWEST VIRGINIA/EAST TENNESSEE...

CITY           SKY/WX    TMP DP  RH WIND       PRES   REMARKS
WISE*          MOCLDY    46  14  27 S5        30.23F
JONESVILLE*    MOCLDY    41  28  60 CALM      30.25F
ABINGDON*      PTCLDY    49  23  35 CALM      30.23F
BRISTOL        PTCLDY    47  24  40 CALM      30.23F
KNOXVILLE      PTCLDY    53  28  38 E3        30.22S
OAK RIDGE      CLEAR     52  33  48 CALM      30.23F
CROSSVILLE     CLEAR     54  33  45 S7        30.21F
NASHVILLE      MOCLDY    61  36  39 S9        30.14S
$$

...KEY TO REMARKS...
VSB - VISIBILITY IN MILES
WCI - WIND CHILL INDEX
HX  - HEAT INDEX

$$


USA.gov is the U.S. government's official web portal to all federal, state and local government web resources and services.